User: anonymous   Login
Location: Oshawa
(43.9000°N, 78.8670°W)
Time: 21:57:45
(UTC-04:00)
Language:

Altair - Orbit

View from above orbital plane
View from above orbital plane
View from above satellite
View from above satellite

Ground track
Ground track

The orbit data is extracted from the following two-line orbital elements,

1 00050U 60009B   16149.79852844 -.00000098  00000-0 -12557-3 0  9990
2 00050  47.2334  36.6746 0113381 233.1595 125.8753 12.20095742489898
Epoch (UTC): 28 May 2016 19:09:52
Eccentricity: 0.0113381
inclination: 47.2334°
perigee height: 1502 km
apogee height: 1682 km
right ascension of ascending node: 36.6746°
argument of perigee: 233.1595°
revolutions per day: 12.20095742
mean anomaly at epoch: 125.8753°
orbit number at epoch: 48989

The dashed part of the orbit path shows where the satellite is in the earth's shadow,  

DLR